STARLINK-11560, 62917

Orbit data source: Space-Track

STARLINK-11560, 62917 is a payload satellite owned by SpaceX/Seattle (US) in LEO that was launched on Sat, 08 Feb 2025 UTC via an FALCON 9 launch vehicle from the Air Force Eastern Test Range (AFETR). Payload-class satellites include a variety of spacecraft equipped with specific instruments for various scientific and technological missions. These include communications satellites like Starlink; space stations such as the ISS; scientific satellites like the Hubble; Earth observation satellites from companies like Planet Labs, Umbra, and HawkEye 360; GPS; miniature CubeSats for education and research; and military/defense satellites.

Loading next visibility...
Identifier
62917, 2025-027L
Orbit
LEO
Country
Flag of USUS
Related business
Manufacturer
SpaceX/Seattle
Mission
Operational Commercial Communications
Bus & Motor
STARLINK V2MD, Unknown motor
Mass
960 kg wet, ~910 kg dry
Launch date (UTC)
2025-02-08 (9 months ago)
Launch vehicle
FALCON 9
Launch site
Air Force Eastern Test Range (AFETR)
Object type
Payload
Rocket body
Debris
Shape & HBR
Box + 2 Pan, 18.1 m
Radar Cross Section
36.964 m², Medium (>0.1 m² and < 1m²)

Expand to show TLE details & history
Last TLE update: 23 hours ago

TLE from 23 hours ago
0 STARLINK-11560
1 62917U 25027L   25310.53605254  .00196847  00000-0  14968-2 0  9997
2 62917  43.0003   9.9573 0001486 272.6598  87.4099 15.70915381 43787
Epoch: 2025-11-06T12:51Z
TLE epoch observation values (Epoch: 2025-11-06T12:51:54.939Z)
Latitude
-0.00006°
Longitude
130.98536°
Altitude
356.006 km
Speed
7.697 km/s
True Right ascension
00h 39m 49s
True Declination
0° 00' 00"
Sunlit
Object was in full shadow at epoch
Visualization orbit readout
Latitude
Unknown
Longitude
Unknown
Altitude
Unknown
Speed
Unknown
Apparent Right ascension
Unknown
Apparent Declination
Unknown
Sunlit
N/A
Visualization observer readout
Local Sidereal Time
08:09:37
Azimuth
Unknown
Elevation
Unknown
Doppler factor
Unknown
Orbital elements
Apogee altitude
359.262 km
Perigee altitude
357.26 km
Semi-major axis
6,736.398 km
Eccentricity
0.00015
Inclination
43.0003°
RAAN
9.9573°
Arg. of periapsis
272.6598°
True anomaly
87.42691°
Mean anomaly
87.4099°
Eccentric anomaly
87.41841°
Mean motion
3.92556 °/min
Orbital period
91.71 mins
BSTAR
0.0014968
Loading maneuver chart data...
Computing Atmospheric mass density...
Loading historical data...
Loading historical data...
Loading historical data...
Loading historical data...
Loading historical data...
Loading historical data...
Loading historical data...

Documentation

Showing up to 5 results
|